TimeMST,TemperatureF,Dew PointF,Humidity,Sea Level PressureIn,VisibilityMPH,Wind Direction,Wind SpeedMPH,Gust SpeedMPH,PrecipitationIn,Events,Conditions,WindDirDegrees,DateUTC
12:53 AM,34.0,8.1,34,30.03,10.0,SW,13.8,25.3,N/A,,Clear,230,2013-01-22 07:53:00
1:53 AM,33.1,7.0,34,30.03,10.0,SSW,20.7,32.2,N/A,,Clear,200,2013-01-22 08:53:00
2:53 AM,32.0,7.0,35,30.04,10.0,SW,18.4,-,N/A,,Clear,220,2013-01-22 09:53:00
3:53 AM,30.0,8.1,40,30.05,10.0,SSW,18.4,-,N/A,,Clear,210,2013-01-22 10:53:00
4:53 AM,30.0,7.0,38,30.08,10.0,SW,16.1,24.2,N/A,,Clear,220,2013-01-22 11:53:00
5:53 AM,30.0,6.1,36,30.09,10.0,SW,20.7,32.2,N/A,,Clear,220,2013-01-22 12:53:00
6:53 AM,28.0,7.0,41,30.12,10.0,SW,18.4,28.8,N/A,,Clear,220,2013-01-22 13:53:00
7:53 AM,30.0,6.1,36,30.11,10.0,SSW,17.3,26.5,N/A,,Clear,210,2013-01-22 14:53:00
8:53 AM,34.0,5.0,30,30.12,10.0,SW,19.6,25.3,N/A,,Clear,220,2013-01-22 15:53:00
9:53 AM,37.9,5.0,25,30.12,10.0,SSW,21.9,31.1,N/A,,Clear,210,2013-01-22 16:53:00
10:53 AM,41.0,5.0,23,30.10,10.0,SSW,20.7,27.6,N/A,,Clear,200,2013-01-22 17:53:00
11:53 AM,44.1,5.0,20,30.09,10.0,SSW,21.9,33.4,N/A,,Clear,210,2013-01-22 18:53:00
12:53 PM,48.0,6.1,18,30.05,10.0,SSW,23.0,33.4,N/A,,Clear,210,2013-01-22 19:53:00
1:53 PM,51.1,5.0,15,30.02,10.0,SSW,25.3,33.4,N/A,,Clear,210,2013-01-22 20:53:00
2:53 PM,50.0,6.1,17,30.06,10.0,SW,19.6,28.8,N/A,,Clear,220,2013-01-22 21:53:00
3:53 PM,48.0,9.0,21,30.09,10.0,SW,18.4,-,N/A,,Clear,220,2013-01-22 22:53:00
4:53 PM,43.0,10.0,26,30.10,10.0,SW,21.9,-,N/A,,Clear,220,2013-01-22 23:53:00
5:53 PM,39.9,10.0,29,30.14,10.0,SW,19.6,26.5,N/A,,Clear,220,2013-01-23 00:53:00
6:53 PM,39.0,9.0,29,30.14,10.0,SW,12.7,-,N/A,,Clear,220,2013-01-23 01:53:00
7:53 PM,39.0,8.1,28,30.13,10.0,SSW,17.3,25.3,N/A,,Clear,210,2013-01-23 02:53:00
8:53 PM,37.9,9.0,30,30.12,10.0,SW,21.9,27.6,N/A,,Clear,220,2013-01-23 03:53:00
9:53 PM,37.9,8.1,29,30.11,10.0,SW,21.9,28.8,N/A,,Clear,230,2013-01-23 04:53:00
10:53 PM,37.0,7.0,29,30.11,10.0,SSW,23.0,29.9,N/A,,Clear,210,2013-01-23 05:53:00
11:53 PM,37.0,6.1,28,30.09,10.0,SW,24.2,31.1,N/A,,Clear,220,2013-01-23 06:53:00